• In Hungary
  • List of Countries
  • For 7 days
  • Water Temperature
  • Satellite Maps
  • Weather Map
  • News
  • Weather Widgets
  • user-avatar
    Login

    Hourly Weather Zaglebocze

    Today, 24 September, Monday

    Time Temperature Precipitation Wind Pressure Humidity
    00:00 +15°C° 0.4 mm 9 mps 724 mmHg 77%
    01:00 +15°C° 0 mm 6 mps 724 mmHg 82%
    02:00 +12°C° 0.9 mm 7 mps 726 mmHg 83%
    03:00 +10°C° 0.9 mm 8 mps 727 mmHg 83%
    04:00 +6°C° 0.9 mm 9 mps 728 mmHg 83%
    05:00 +6°C° 0.2 mm 8 mps 730 mmHg 83%
    06:00 +6°C° 0.2 mm 7 mps 731 mmHg 83%
    07:00 +7°C° 0 mm 6 mps 732 mmHg 82%
    08:00 +7°C° 0.1 mm 6 mps 733 mmHg 79%
    09:00 +8°C° 0.1 mm 7 mps 734 mmHg 76%
    10:00 +8°C° 0.1 mm 7 mps 735 mmHg 72%
    11:00 +8°C° 0.1 mm 7 mps 735 mmHg 68%
    12:00 +9°C° 0.1 mm 7 mps 736 mmHg 64%
    13:00 +9°C° 0.1 mm 7 mps 736 mmHg 60%
    14:00 +9°C° 0.2 mm 7 mps 736 mmHg 60%
    15:00 +9°C° 0.2 mm 7 mps 736 mmHg 60%
    16:00 +9°C° 0.2 mm 7 mps 736 mmHg 60%
    17:00 +8°C° 0.1 mm 6 mps 737 mmHg 64%
    18:00 +7°C° 0.1 mm 5 mps 737 mmHg 69%
    19:00 +6°C° 0.1 mm 4 mps 737 mmHg 74%
    20:00 +6°C° 0 mm 4 mps 738 mmHg 74%
    21:00 +5°C° 0 mm 4 mps 739 mmHg 75%
    22:00 +5°C° 0 mm 4 mps 739 mmHg 76%
    23:00 +5°C° 0 mm 4 mps 739 mmHg 77%

    Tomorrow, 25 September, Tuesday

    Time Temperature Precipitation Wind Pressure Humidity
    00:00 +5°C° 0 mm 4 mps 740 mmHg 79%
    01:00 +4°C° 0 mm 3 mps 740 mmHg 80%
    02:00 +4°C° 0.1 mm 3 mps 741 mmHg 81%
    03:00 +4°C° 0.1 mm 3 mps 741 mmHg 82%
    04:00 +4°C° 0.1 mm 4 mps 741 mmHg 84%
    05:00 +4°C° 0 mm 4 mps 742 mmHg 83%
    06:00 +4°C° 0 mm 4 mps 742 mmHg 81%
    07:00 +4°C° 0 mm 4 mps 743 mmHg 80%
    08:00 +6°C° 0 mm 4 mps 744 mmHg 75%
    09:00 +7°C° 0 mm 4 mps 744 mmHg 70%
    10:00 +8°C° 0 mm 5 mps 745 mmHg 65%
    11:00 +8°C° 0.1 mm 5 mps 745 mmHg 62%
    12:00 +9°C° 0.1 mm 5 mps 745 mmHg 58%
    13:00 +10°C° 0.1 mm 5 mps 745 mmHg 55%
    14:00 +10°C° 0.2 mm 5 mps 745 mmHg 55%
    15:00 +10°C° 0.2 mm 5 mps 745 mmHg 55%
    16:00 +10°C° 0.2 mm 4 mps 745 mmHg 55%
    17:00 +8°C° 0 mm 4 mps 746 mmHg 58%
    18:00 +8°C° 0 mm 3 mps 746 mmHg 62%
    19:00 +7°C° 0 mm 2 mps 747 mmHg 65%
    20:00 +6°C° 0 mm 2 mps 747 mmHg 66%
    21:00 +6°C° 0 mm 1 mps 748 mmHg 67%
    22:00 +6°C° 0 mm 1 mps 748 mmHg 69%
    23:00 +6°C° 0 mm 1 mps 748 mmHg 70%

    Day after tomorrow, 26 September, Wednesday

    Time Temperature Precipitation Wind Pressure Humidity
    00:00 +5°C° 0 mm 1 mps 748 mmHg 72%
    01:00 +5°C° 0 mm 1 mps 748 mmHg 73%
    02:00 +5°C° 0 mm 1 mps 748 mmHg 74%
    03:00 +4°C° 0 mm 1 mps 748 mmHg 75%
    04:00 +4°C° 0 mm 1 mps 748 mmHg 76%
    05:00 +5°C° 0 mm 1 mps 748 mmHg 73%
    06:00 +6°C° 0 mm 1 mps 749 mmHg 71%
    07:00 +6°C° 0 mm 1 mps 749 mmHg 68%
    08:00 +7°C° 0 mm 2 mps 749 mmHg 60%
    09:00 +9°C° 0 mm 2 mps 749 mmHg 51%
    10:00 +13°C° 0 mm 2 mps 749 mmHg 42%
    11:00 +13°C° 0 mm 2 mps 748 mmHg 40%
    12:00 +13°C° 0 mm 3 mps 748 mmHg 37%
    13:00 +14°C° 0 mm 3 mps 747 mmHg 35%
    14:00 +14°C° 0 mm 3 mps 746 mmHg 38%
    15:00 +14°C° 0 mm 3 mps 746 mmHg 41%
    16:00 +13°C° 0 mm 3 mps 745 mmHg 44%
    17:00 +12°C° 0 mm 3 mps 745 mmHg 49%
    18:00 +10°C° 0 mm 3 mps 745 mmHg 53%
    19:00 +9°C° 0 mm 3 mps 745 mmHg 58%
    20:00 +9°C° 0 mm 3 mps 745 mmHg 58%
    21:00 +9°C° 0 mm 3 mps 745 mmHg 58%
    22:00 +8°C° 0 mm 3 mps 745 mmHg 57%
    23:00 +8°C° 0 mm 3 mps 745 mmHg 58%

    27 September, Thursday

    Time Temperature Precipitation Wind Pressure Humidity
    00:00 +8°C° 0 mm 3 mps 744 mmHg 58%
    01:00 +7°C° 0 mm 3 mps 744 mmHg 58%
    02:00 +7°C° 0 mm 3 mps 744 mmHg 58%
    03:00 +7°C° 0 mm 3 mps 744 mmHg 57%
    04:00 +7°C° 0 mm 3 mps 743 mmHg 57%
    05:00 +8°C° 0 mm 3 mps 743 mmHg 56%
    06:00 +9°C° 0 mm 3 mps 743 mmHg 54%
    07:00 +9°C° 0 mm 3 mps 743 mmHg 53%
    08:00 +12°C° 0 mm 3 mps 743 mmHg 49%
    09:00 +14°C° 0 mm 3 mps 743 mmHg 45%
    10:00 +18°C° 0 mm 3 mps 743 mmHg 40%
    11:00 +19°C° 0 mm 3 mps 743 mmHg 41%
    12:00 +20°C° 0 mm 3 mps 743 mmHg 43%
    13:00 +21°C° 0 mm 3 mps 742 mmHg 44%
    14:00 +21°C° 0 mm 3 mps 742 mmHg 47%
    15:00 +20°C° 0 mm 3 mps 742 mmHg 50%
    16:00 +20°C° 0 mm 3 mps 741 mmHg 54%
    17:00 +18°C° 0 mm 2 mps 741 mmHg 59%
    18:00 +17°C° 0 mm 2 mps 741 mmHg 64%
    19:00 +15°C° 0 mm 2 mps 741 mmHg 69%
    20:00 +14°C° 0 mm 2 mps 741 mmHg 70%
    21:00 +14°C° 0 mm 2 mps 740 mmHg 70%
    22:00 +14°C° 0 mm 2 mps 740 mmHg 71%
    23:00 +13°C° 0 mm 2 mps 740 mmHg 72%

    28 September, Friday

    Time Temperature Precipitation Wind Pressure Humidity
    00:00 +13°C° 0 mm 2 mps 740 mmHg 73%
    01:00 +13°C° 0 mm 2 mps 739 mmHg 74%
    02:00 +13°C° 0 mm 2 mps 739 mmHg 74%
    03:00 +12°C° 0 mm 2 mps 738 mmHg 75%
    04:00 +12°C° 0 mm 2 mps 738 mmHg 76%
    05:00 +13°C° 0 mm 2 mps 738 mmHg 74%
    06:00 +13°C° 0 mm 2 mps 738 mmHg 73%
    07:00 +14°C° 0 mm 2 mps 737 mmHg 71%
    08:00 +16°C° 0 mm 2 mps 737 mmHg 63%
    09:00 +18°C° 0 mm 3 mps 737 mmHg 55%
    10:00 +20°C° 0 mm 3 mps 737 mmHg 46%
    11:00 +21°C° 0 mm 3 mps 737 mmHg 43%
    12:00 +22°C° 0 mm 3 mps 737 mmHg 40%
    13:00 +22°C° 0 mm 3 mps 736 mmHg 37%
    14:00 +22°C° 0 mm 3 mps 736 mmHg 40%
    15:00 +21°C° 0 mm 2 mps 736 mmHg 42%
    16:00 +21°C° 0 mm 2 mps 735 mmHg 45%
    17:00 +20°C° 0 mm 1 mps 735 mmHg 51%
    18:00 +18°C° 0 mm 1 mps 735 mmHg 57%
    19:00 +13°C° 0 mm 0 mps 735 mmHg 63%
    20:00 +13°C° 0 mm 0 mps 735 mmHg 66%
    21:00 +12°C° 0 mm 0 mps 735 mmHg 69%
    22:00 +12°C° 0 mm 0 mps 735 mmHg 72%
    23:00 +12°C° 0 mm 1 mps 735 mmHg 75%

    29 September, Saturday

    Time Temperature Precipitation Wind Pressure Humidity
    00:00 +12°C° 0 mm 1 mps 735 mmHg 77%
    01:00 +12°C° 0 mm 1 mps 735 mmHg 80%
    02:00 +12°C° 0.2 mm 1 mps 735 mmHg 83%
    03:00 +12°C° 0.2 mm 2 mps 735 mmHg 85%
    04:00 +10°C° 0.2 mm 2 mps 735 mmHg 88%
    05:00 +10°C° 0.4 mm 2 mps 736 mmHg 89%
    06:00 +10°C° 0.4 mm 2 mps 736 mmHg 90%
    07:00 +10°C° 0.4 mm 3 mps 737 mmHg 92%
    08:00 +11°C° 0.1 mm 3 mps 737 mmHg 87%
    09:00 +11°C° 0.1 mm 3 mps 738 mmHg 82%
    10:00 +12°C° 0.1 mm 3 mps 738 mmHg 77%
    11:00 +12°C° 0 mm 3 mps 738 mmHg 72%
    12:00 +12°C° 0 mm 3 mps 738 mmHg 66%
    13:00 +13°C° 0 mm 3 mps 739 mmHg 61%
    14:00 +13°C° 0 mm 3 mps 739 mmHg 60%
    15:00 +12°C° 0 mm 3 mps 739 mmHg 58%
    16:00 +12°C° 0 mm 3 mps 739 mmHg 56%
    17:00 +11°C° 0 mm 3 mps 739 mmHg 60%
    18:00 +10°C° 0 mm 3 mps 740 mmHg 64%
    19:00 +8°C° 0 mm 2 mps 740 mmHg 68%
    20:00 +8°C° 0 mm 2 mps 740 mmHg 69%
    21:00 +7°C° 0 mm 2 mps 740 mmHg 70%
    22:00 +7°C° 0 mm 2 mps 741 mmHg 71%
    23:00 +6°C° 0 mm 2 mps 740 mmHg 72%
    Show more